period_start,C,m1,H,J0,J1,J2,J3,J4,J5,JA,JB,JC,JD,JJ,JK,JN,#
2017-01-02 00:02:13,0.53,4.89,1.00,18.69,22.89,26.48,14.79,48.39,1012.21,2041.75,2098.60,2048.49,2331.39,599.74,601.97,9.60,0000 0000 0000 0000 000000
2017-01-02 00:07:14,0.45,4.92,1.00,18.69,22.89,26.40,14.71,48.31,1012.20,2041.87,2093.61,2045.05,2327.19,599.81,602.07,9.65,0000 0000 0000 0000 000000
2017-01-02 00:12:15,0.51,4.94,1.00,18.69,22.89,26.44,14.73,48.35,1012.20,2041.85,2088.33,2041.17,2322.73,599.87,602.07,9.70,0000 0000 0000 0000 000000
2017-01-02 00:17:17,0.47,4.97,1.00,18.70,22.89,26.53,14.78,48.37,1012.20,2041.83,2083.26,2037.36,2318.46,600.07,602.30,9.75,0000 0000 0000 0000 000000
2017-01-02 00:22:18,0.49,4.99,1.00,18.69,22.89,26.44,14.74,48.34,1011.96,2041.67,2078.21,2033.51,2313.97,599.91,602.04,9.80,0000 0000 0000 0000 000000
2017-01-02 00:27:19,0.50,5.02,0.93,18.70,22.89,26.53,14.69,48.27,1011.75,2041.50,2072.66,2029.45,2309.40,599.89,602.01,9.85,0000 0000 0000 0000 000000
2017-01-02 00:32:21,0.52,5.04,0.00,18.69,22.89,26.54,14.76,48.27,1011.79,2041.54,2067.13,2025.48,2304.97,600.27,602.20,9.90,0000 0000 0000 0000 000000
2017-01-02 00:37:22,0.48,5.07,0.00,18.69,22.89,26.51,14.72,48.40,1011.74,2041.44,2061.94,2021.65,2300.76,600.35,602.29,9.95,0000 0000 0000 0000 000000
2017-01-02 00:42:24,0.48,5.09,0.00,18.68,22.89,26.45,14.73,48.38,1011.74,2041.26,2056.83,2017.76,2296.32,600.23,602.30,10.00,0000 0000 0000 0000 000000
2017-01-02 00:47:25,0.52,5.12,0.00,18.68,22.89,26.51,14.77,48.42,1011.74,2041.17,2051.40,2013.75,2291.83,600.10,602.07,10.05,0000 0000 0000 0000 000000
2017-01-02 00:52:27,0.49,5.14,0.00,18.68,22.89,26.50,14.71,48.38,1011.73,2041.12,2046.22,2009.84,2287.40,600.29,602.17,10.10,0000 0000 0000 0000 000000
2017-01-02 00:57:28,0.50,5.17,0.10,18.69,22.89,26.51,14.75,48.43,1011.73,2041.08,2041.16,2005.98,2283.02,600.16,602.08,10.15,0000 0000 0000 0000 000000
2017-01-02 01:02:29,0.53,5.19,1.00,18.70,22.89,26.52,14.79,48.36,1011.73,2041.13,2036.06,2002.09,2278.54,600.33,602.15,10.20,0000 0000 0000 0000 000000
2017-01-02 01:07:31,0.53,5.22,1.00,18.70,22.89,26.47,14.60,48.33,1011.71,2041.10,2030.49,1998.05,2273.94,599.90,601.80,10.25,0000 0000 0000 0000 000000
2017-01-02 01:12:32,0.56,5.25,1.00,18.68,22.89,26.44,14.65,48.27,1011.70,2041.09,2024.77,1993.90,2269.21,599.78,601.74,10.30,0000 0000 0000 0000 000000
2017-01-02 01:17:33,0.58,5.28,1.00,18.68,22.89,26.51,14.71,48.38,1011.62,2041.08,2018.91,1989.66,2264.51,600.22,602.17,10.35,0000 0000 0000 0000 000000
2017-01-02 01:22:34,0.56,5.31,1.00,18.68,22.89,26.50,14.65,48.48,1011.56,2041.14,2013.17,1985.53,2259.81,599.60,601.41,10.40,0000 0000 0000 0000 000000
2017-01-02 01:27:35,0.56,5.33,1.00,18.66,22.89,26.32,14.73,48.33,1011.63,2041.18,2007.48,1981.55,2255.12,600.14,602.03,10.45,0000 0000 0000 0000 000000
2017-01-02 01:32:37,0.56,5.36,1.00,18.68,22.87,26.33,14.80,48.37,1011.71,2041.08,2001.71,1977.37,2250.39,600.23,602.17,10.50,0000 0000 0000 0000 000000
2017-01-02 01:37:38,0.57,5.39,1.00,18.65,22.87,26.29,14.67,48.27,1011.72,2041.08,1996.02,1973.25,2245.70,599.76,601.87,10.55,0000 0000 0000 0000 000000
2017-01-02 01:42:39,0.55,5.42,1.00,18.65,22.87,26.23,14.78,48.34,1011.71,2041.07,1990.35,1969.16,2241.18,600.26,602.17,10.60,0000 0000 0000 0000 000000
2017-01-02 01:47:41,0.55,5.45,1.00,18.65,22.87,26.24,14.72,48.33,1011.73,2041.10,1984.81,1965.11,2236.78,599.95,601.92,10.65,0000 0000 0000 0000 000000
2017-01-02 01:52:42,0.54,5.48,1.00,18.65,22.87,26.35,14.69,48.39,1011.65,2041.08,1979.50,1961.08,2232.24,600.21,602.24,10.70,0000 0000 0000 0000 000000
2017-01-02 01:57:44,0.57,5.50,1.00,18.64,22.87,26.37,14.68,48.39,1011.50,2041.10,1974.06,1957.10,2227.60,600.11,602.04,10.75,0000 0000 0000 0000 000000
2017-01-02 02:02:45,0.56,5.53,1.00,18.64,22.87,26.43,14.74,48.42,1011.42,2041.11,1968.46,1953.09,2223.14,599.85,601.77,10.80,0000 0000 0000 0000 000000
2017-01-02 02:07:46,0.57,5.56,1.00,18.66,22.87,26.34,14.73,48.33,1011.37,2041.14,1962.89,1949.00,2218.64,599.97,601.75,10.85,0000 0000 0000 0000 000000
2017-01-02 02:12:47,0.55,5.59,1.00,18.65,22.87,26.32,14.72,48.47,1011.36,2041.09,1957.53,1944.96,2214.06,599.81,601.62,10.90,0000 0000 0000 0000 000000
2017-01-02 02:17:49,0.51,5.62,1.00,18.64,22.86,26.43,14.80,48.36,1011.39,2041.09,1952.74,1941.24,2209.67,600.32,601.94,10.95,0000 0000 0000 0000 000000
2017-01-02 02:22:50,0.51,5.64,1.00,18.62,22.86,26.33,14.79,48.34,1011.29,2041.06,1947.87,1937.68,2205.48,600.45,602.31,11.00,0000 0000 0000 0000 000000
2017-01-02 02:27:51,0.56,5.67,1.00,18.62,22.85,26.41,14.76,48.26,1011.33,2041.06,1942.43,1933.81,2201.21,600.28,602.08,11.05,0000 0000 0000 0000 000000
2017-01-02 02:32:52,0.59,5.70,1.00,18.63,22.85,26.44,14.71,48.40,1011.30,2041.02,1936.65,1929.64,2196.63,600.06,601.86,11.10,0000 0000 0000 0000 000000
2017-01-02 02:37:53,0.59,5.73,1.00,18.61,22.84,26.45,14.72,48.44,1011.25,2041.03,1930.90,1925.52,2191.99,600.16,601.91,11.15,0000 0000 0000 0000 000000
2017-01-02 02:42:55,0.58,5.76,1.00,18.61,22.84,26.42,14.73,48.49,1011.26,2041.08,1925.32,1921.48,2187.49,599.92,601.76,11.20,0000 0000 0000 0000 000000
2017-01-02 02:47:56,0.58,5.79,1.00,18.60,22.84,26.47,14.70,48.43,1011.25,2041.11,1919.85,1917.54,2182.96,600.02,601.84,11.25,0000 0000 0000 0000 000000
2017-01-02 02:52:57,0.55,5.82,1.00,18.59,22.84,26.42,14.70,48.56,1011.25,2041.35,1914.98,1913.86,2178.77,599.85,601.67,11.30,0000 0000 0000 0000 000000
2017-01-02 02:57:59,0.54,5.84,1.00,18.58,22.84,26.46,14.72,48.61,1011.25,2041.42,1910.03,1910.12,2174.51,600.05,601.92,11.35,0000 0000 0000 0000 000000
2017-01-02 03:03:00,0.51,5.87,1.00,18.60,22.84,26.42,14.81,48.48,1011.25,2041.24,1905.07,1906.35,2170.25,599.97,601.90,11.41,0000 0000 0000 0000 000000
2017-01-02 03:08:01,0.55,5.90,1.00,18.58,22.84,26.23,14.68,48.37,1011.25,2041.24,1900.15,1902.72,2166.04,599.39,601.34,11.46,0000 0000 0000 0000 000000
2017-01-02 03:13:02,0.47,5.92,1.00,18.58,22.84,26.35,14.78,48.44,1011.25,2041.34,1895.54,1899.36,2162.39,599.96,601.78,11.51,0000 0000 0000 0000 000000
2017-01-02 03:18:03,0.42,5.95,1.00,18.56,22.84,26.23,14.81,48.53,1011.14,2041.35,1891.68,1896.40,2159.06,600.36,602.25,11.56,0000 0000 0000 0000 000000
2017-01-02 03:23:04,0.48,5.97,1.00,18.55,22.83,26.38,14.71,48.38,1011.11,2041.28,1887.40,1893.12,2155.25,599.89,601.69,11.61,0000 0000 0000 0000 000000
2017-01-02 03:28:05,0.52,5.99,0.77,18.53,22.82,26.42,14.66,48.38,1010.92,2041.21,1882.62,1889.59,2151.20,599.68,601.47,11.66,0000 0000 0000 0000 000000
2017-01-02 03:33:06,0.49,6.02,0.00,18.54,22.82,26.34,14.70,48.40,1010.88,2041.08,1878.02,1886.05,2147.18,599.77,601.50,11.71,0000 0000 0000 0000 000000
2017-01-02 03:38:08,0.48,6.04,0.00,18.54,22.82,26.26,14.62,48.27,1010.81,2041.10,1873.90,1882.85,2143.42,599.92,601.58,11.76,0000 0000 0000 0000 000000
2017-01-02 03:43:09,0.54,6.07,0.00,18.53,22.82,26.41,14.73,48.52,1010.81,2041.07,1869.14,1879.30,2139.39,599.90,601.69,11.81,0000 0000 0000 0000 000000
2017-01-02 03:48:10,0.49,6.10,0.00,18.55,22.82,26.33,14.75,48.44,1010.95,2041.06,1864.42,1875.93,2135.69,600.12,601.80,11.86,0000 0000 0000 0000 000000
2017-01-02 03:53:11,0.46,6.12,0.00,18.54,22.82,26.32,14.70,48.42,1010.78,2041.14,1860.32,1872.91,2132.33,600.12,601.84,11.91,0000 0000 0000 0000 000000
2017-01-02 03:58:12,0.44,6.14,0.00,18.53,22.80,26.26,14.73,48.57,1010.92,2041.20,1856.55,1870.01,2129.08,599.97,601.79,11.96,0000 0000 0000 0000 000000
2017-01-02 04:03:13,0.42,6.16,0.00,18.54,22.79,26.35,14.75,48.62,1010.91,2041.29,1853.07,1867.23,2125.90,600.19,602.02,12.01,0000 0000 0000 0000 000000
2017-01-02 04:08:14,0.41,6.18,0.00,18.54,22.79,26.38,14.69,48.57,1010.77,2041.58,1849.71,1864.56,2122.84,599.67,601.39,12.06,0000 0000 0000 0000 000000
2017-01-02 04:13:16,0.50,6.21,0.00,18.52,22.79,26.41,14.69,48.54,1010.77,2041.59,1845.81,1861.50,2119.17,600.01,601.72,12.11,0000 0000 0000 0000 000000
2017-01-02 04:18:17,0.53,6.23,0.00,18.49,22.79,26.32,14.75,48.40,1010.79,2041.42,1841.05,1857.88,2115.10,600.27,602.07,12.16,0000 0000 0000 0000 000000
2017-01-02 04:23:18,0.50,6.26,0.00,18.50,22.79,26.36,14.77,48.43,1010.85,2041.42,1836.39,1854.56,2111.20,600.14,601.97,12.21,0000 0000 0000 0000 000000
2017-01-02 04:28:19,0.53,6.29,0.00,18.49,22.78,26.26,14.65,48.37,1010.78,2041.52,1831.96,1851.24,2107.46,600.09,601.76,12.26,0000 0000 0000 0000 000000
2017-01-02 04:33:21,0.49,6.31,0.00,18.49,22.77,26.31,14.77,48.39,1010.85,2041.35,1827.41,1847.78,2103.52,600.03,601.84,12.31,0000 0000 0000 0000 000000
2017-01-02 04:38:22,0.50,6.34,0.00,18.48,22.77,26.19,14.73,48.57,1010.85,2041.33,1823.00,1844.50,2099.82,600.08,601.89,12.36,0000 0000 0000 0000 000000
2017-01-02 04:43:24,0.47,6.36,0.00,18.48,22.77,26.15,14.71,48.63,1011.01,2041.24,1818.71,1841.32,2096.23,599.65,601.46,12.41,0000 0000 0000 0000 000000
2017-01-02 04:48:25,0.54,6.39,0.00,18.47,22.76,26.22,14.66,48.43,1011.04,2041.31,1814.16,1837.92,2092.39,599.72,601.79,12.46,0000 0000 0000 0000 000000
2017-01-02 04:53:26,0.50,6.41,0.00,18.48,22.75,26.27,14.71,48.39,1010.92,2041.33,1809.93,1834.68,2088.64,599.85,601.74,12.51,0000 0000 0000 0000 000000
2017-01-02 04:58:28,0.49,6.44,0.30,18.48,22.74,26.24,14.68,48.58,1010.81,2041.36,1805.81,1831.50,2085.02,599.94,601.81,12.56,0000 0000 0000 0000 000000
2017-01-02 05:03:29,0.52,6.46,1.00,18.48,22.74,26.28,14.73,48.59,1010.79,2041.44,1801.39,1828.28,2081.40,599.72,601.46,12.61,0000 0000 0000 0000 000000
2017-01-02 05:08:31,0.55,6.49,1.00,18.47,22.74,26.29,14.72,48.60,1010.79,2041.39,1796.67,1824.75,2077.41,600.10,601.91,12.66,0000 0000 0000 0000 000000
2017-01-02 05:13:32,0.52,6.52,1.00,18.46,22.72,26.18,14.70,48.43,1010.80,2041.38,1792.21,1821.26,2073.38,599.99,601.83,12.71,0000 0000 0000 0000 000000
2017-01-02 05:18:33,0.54,6.55,1.00,18.46,22.72,26.13,14.69,48.46,1010.86,2041.44,1787.75,1817.92,2069.58,599.86,601.72,12.76,0000 0000 0000 0000 000000
2017-01-02 05:23:35,0.53,6.57,1.00,18.45,22.72,26.26,14.72,48.57,1010.77,2041.29,1783.02,1814.41,2065.65,600.19,602.04,12.81,0000 0000 0000 0000 000000
2017-01-02 05:28:36,0.55,6.60,1.00,18.44,22.71,26.21,14.71,48.62,1010.76,2041.32,1778.36,1811.00,2061.81,600.21,602.04,12.86,0000 0000 0000 0000 000000
2017-01-02 05:33:37,0.60,6.63,1.00,18.44,22.70,26.16,14.69,48.66,1010.76,2041.43,1773.60,1807.51,2057.85,599.98,601.82,12.91,0000 0000 0000 0000 000000
2017-01-02 05:38:38,0.58,6.66,1.00,18.40,22.69,26.31,14.75,48.69,1010.76,2041.52,1768.85,1803.98,2053.81,600.01,601.89,12.96,0000 0000 0000 0000 000000
2017-01-02 05:43:39,0.56,6.69,1.00,18.40,22.69,26.15,14.69,48.65,1010.76,2041.75,1764.26,1800.55,2049.92,599.74,601.69,13.01,0000 0000 0000 0000 000000
2017-01-02 05:48:41,0.58,6.72,1.00,18.41,22.67,26.17,14.76,48.72,1010.76,2041.82,1759.61,1797.10,2046.17,600.03,601.94,13.06,0000 0000 0000 0000 000000
2017-01-02 05:53:42,0.54,6.74,1.00,18.40,22.67,26.15,14.77,48.57,1010.76,2041.86,1754.97,1793.68,2042.35,600.13,602.08,13.11,0000 0000 0000 0000 000000
2017-01-02 05:58:43,0.53,6.77,1.00,18.39,22.66,26.04,14.71,48.70,1010.76,2041.86,1750.49,1790.47,2038.64,600.11,602.11,13.16,0000 0000 0000 0000 000000
2017-01-02 06:03:44,0.55,6.80,1.00,18.37,22.64,26.08,14.74,48.64,1010.76,2041.90,1746.08,1787.15,2034.84,599.93,601.89,13.21,0000 0000 0000 0000 000000
2017-01-02 06:08:45,0.53,6.83,1.00,18.37,22.64,26.12,14.76,48.77,1010.76,2041.92,1741.71,1783.93,2031.20,599.84,601.87,13.26,0000 0000 0000 0000 000000
2017-01-02 06:13:47,0.52,6.85,1.00,18.37,22.64,26.09,14.79,48.74,1010.76,2041.94,1737.42,1780.75,2027.61,600.14,602.15,13.31,0000 0000 0000 0000 000000
2017-01-02 06:18:48,0.51,6.88,1.00,18.36,22.62,26.04,14.76,48.72,1010.76,2041.95,1733.19,1777.65,2024.14,600.14,602.14,13.36,0000 0000 0000 0000 000000
2017-01-02 06:23:49,0.49,6.90,1.00,18.34,22.62,26.09,14.73,48.78,1010.76,2041.96,1729.21,1774.64,2020.73,599.54,601.72,13.41,0000 0000 0000 0000 000000
2017-01-02 06:28:51,0.48,6.93,1.00,18.33,22.62,25.99,14.59,48.61,1010.76,2041.98,1725.38,1771.65,2017.38,599.77,601.91,13.46,0000 0000 0000 0000 000000
2017-01-02 06:33:52,0.49,6.96,1.00,18.32,22.60,26.14,14.80,48.86,1010.76,2041.96,1721.58,1768.68,2013.89,600.31,602.40,13.51,0000 0000 0000 0000 000000
2017-01-02 06:38:54,0.51,6.98,1.00,18.30,22.60,26.13,14.75,48.78,1010.76,2041.98,1717.54,1765.58,2010.27,600.14,602.39,13.56,0000 0000 0000 0000 000000
2017-01-02 06:43:55,0.50,7.00,1.00,18.31,22.59,26.14,14.65,48.73,1010.76,2041.97,1713.59,1762.53,2006.78,599.53,601.67,13.61,0000 0000 0000 0000 000000
2017-01-02 06:48:56,0.51,7.03,1.00,18.31,22.59,26.08,14.76,48.66,1010.76,2041.98,1709.59,1759.54,2003.27,600.12,602.26,13.66,0000 0000 0000 0000 000000
2017-01-02 06:53:58,0.51,7.06,1.00,18.29,22.59,26.08,14.68,48.75,1010.75,2041.97,1705.52,1756.45,1999.87,599.61,601.73,13.71,0000 0000 0000 0000 000000
2017-01-02 06:58:59,0.50,7.08,1.00,18.28,22.57,26.07,14.77,48.88,1010.76,2041.99,1701.57,1753.53,1996.57,600.12,602.38,13.76,0000 0000 0000 0000 000000
2017-01-02 07:04:00,0.50,7.11,1.00,18.29,22.57,26.08,14.79,48.83,1010.75,2041.99,1697.58,1750.57,1993.28,600.29,602.41,13.82,0000 0000 0000 0000 000000
2017-01-02 07:09:02,0.51,7.13,1.00,18.28,22.56,25.99,14.74,48.94,1010.72,2041.99,1693.57,1747.55,1989.89,599.83,602.10,13.87,0000 0000 0000 0000 000000
2017-01-02 07:14:03,0.49,7.16,1.00,18.25,22.55,26.05,14.81,49.02,1010.63,2041.99,1689.71,1744.62,1986.55,600.28,602.52,13.92,0000 0000 0000 0000 000000
2017-01-02 07:19:04,0.51,7.19,1.00,18.24,22.54,26.08,14.80,48.99,1010.54,2041.99,1685.69,1741.65,1983.29,600.03,602.11,13.97,0000 0000 0000 0000 000000
2017-01-02 07:24:06,0.52,7.21,1.00,18.22,22.54,26.06,14.78,49.04,1010.52,2041.99,1681.62,1738.59,1979.93,599.98,602.10,14.02,0000 0000 0000 0000 000000
2017-01-02 07:29:07,0.58,7.24,1.00,18.22,22.53,26.03,14.79,49.02,1010.55,2041.99,1677.11,1735.30,1976.21,600.06,602.19,14.07,0000 0000 0000 0000 000000
2017-01-02 07:34:08,0.58,7.27,1.00,18.20,22.52,26.05,14.71,48.94,1010.48,2041.99,1672.43,1731.91,1972.36,599.87,602.02,14.12,0000 0000 0000 0000 000000
2017-01-02 07:39:09,0.49,7.30,1.00,18.20,22.52,26.03,14.72,49.00,1010.54,2041.99,1668.55,1728.96,1968.95,599.93,602.19,14.17,0000 0000 0000 0000 000000
2017-01-02 07:44:11,0.41,7.32,1.00,18.19,22.52,25.95,14.86,49.05,1010.56,2041.99,1665.29,1726.57,1966.08,600.12,602.47,14.22,0000 0000 0000 0000 000000
2017-01-02 07:49:12,0.49,7.34,1.00,18.17,22.50,26.02,14.76,48.98,1010.68,2041.99,1661.80,1723.83,1962.90,599.99,602.28,14.27,0000 0000 0000 0000 000000
2017-01-02 07:54:13,0.56,7.37,1.00,18.18,22.49,26.02,14.74,48.95,1010.74,2042.00,1657.66,1720.71,1959.28,599.81,602.22,14.32,0000 0000 0000 0000 000000
2017-01-02 07:59:14,0.55,7.40,1.00,18.18,22.49,26.02,14.78,48.93,1010.58,2042.00,1653.45,1717.57,1955.67,600.32,602.58,14.37,0000 0000 0000 0000 000000
2017-01-02 08:04:15,0.53,7.42,1.00,18.17,22.49,26.04,14.78,48.94,1010.41,2042.00,1649.39,1714.56,1952.28,600.13,602.37,14.42,0000 0000 0000 0000 000000
2017-01-02 08:09:17,0.55,7.45,1.00,18.16,22.47,25.92,14.74,48.96,1010.31,2042.00,1645.30,1711.52,1948.77,599.84,602.00,14.47,0000 0000 0000 0000 000000
2017-01-02 08:14:18,0.60,7.48,1.00,18.14,22.47,25.94,14.84,48.87,1010.28,2042.00,1640.87,1708.21,1944.99,600.45,602.78,14.52,0000 0000 0000 0000 000000
2017-01-02 08:19:20,0.66,7.51,1.00,18.12,22.46,25.98,14.77,48.92,1010.28,2042.01,1636.03,1704.59,1940.89,599.71,601.94,14.57,0000 0000 0000 0000 000000
2017-01-02 08:24:21,0.58,7.54,1.00,18.11,22.45,26.00,14.70,48.83,1010.27,2042.01,1631.53,1701.23,1937.10,600.15,602.40,14.62,0000 0000 0000 0000 000000
2017-01-02 08:29:22,0.55,7.57,1.00,18.12,22.44,25.89,14.78,48.94,1010.29,2042.01,1627.27,1698.15,1933.63,600.09,602.28,14.67,0000 0000 0000 0000 000000
2017-01-02 08:34:24,0.54,7.60,1.00,18.12,22.43,25.83,14.77,48.94,1010.27,2042.01,1623.21,1695.12,1930.17,600.24,602.49,14.72,0000 0000 0000 0000 000000
2017-01-02 08:39:25,0.52,7.62,1.00,18.11,22.42,25.88,14.69,48.83,1010.30,2042.01,1619.41,1692.17,1926.83,600.18,602.54,14.77,0000 0000 0000 0000 000000
2017-01-02 08:44:26,0.51,7.65,1.00,18.09,22.42,25.96,14.81,49.13,1010.28,2042.03,1615.75,1689.36,1923.64,600.08,602.35,14.82,0000 0000 0000 0000 000000
2017-01-02 08:49:27,0.52,7.68,1.00,18.09,22.40,25.89,14.71,48.99,1010.38,2042.03,1611.94,1686.49,1920.39,599.57,601.93,14.87,0000 0000 0000 0000 000000
2017-01-02 08:54:28,0.60,7.70,1.00,18.08,22.39,25.94,14.78,49.11,1010.51,2042.01,1607.68,1683.32,1916.90,600.10,602.50,14.92,0000 0000 0000 0000 000000
2017-01-02 08:59:29,0.64,7.74,1.00,18.08,22.39,25.97,14.74,49.17,1010.48,2042.01,1602.91,1679.84,1913.04,599.78,602.21,14.97,0000 0000 0000 0000 000000
2017-01-02 09:04:31,0.63,7.77,1.00,18.07,22.37,25.90,14.71,49.03,1010.66,2042.04,1598.25,1676.35,1909.08,599.86,602.63,15.02,0000 0000 0000 0000 000000
2017-01-02 09:09:32,0.52,7.80,1.00,18.06,22.37,25.86,14.81,49.13,1010.62,2042.10,1594.42,1673.41,1905.77,600.16,602.80,15.07,0000 0000 0000 0000 000000
2017-01-02 09:14:34,0.50,7.82,1.00,18.07,22.36,25.85,14.67,49.05,1010.62,2042.18,1590.85,1670.70,1902.67,599.94,602.65,15.12,0000 0000 0000 0000 000000
2017-01-02 09:19:35,0.54,7.85,1.00,18.05,22.35,25.79,14.68,48.99,1010.73,2042.40,1587.42,1668.00,1899.50,599.91,602.67,15.17,0000 0000 0000 0000 000000
2017-01-02 09:24:37,0.48,7.87,1.00,18.06,22.34,25.80,14.69,49.11,1010.75,2042.41,1583.93,1665.32,1896.48,599.78,602.43,15.22,0000 0000 0000 0000 000000
2017-01-02 09:29:38,0.50,7.90,1.00,18.04,22.34,25.83,14.76,49.12,1010.65,2042.34,1580.38,1662.68,1893.31,599.82,602.50,15.27,0000 0000 0000 0000 000000
2017-01-02 09:34:39,0.60,7.93,1.00,18.02,22.32,25.86,14.79,49.16,1010.74,2042.31,1576.22,1659.58,1889.75,600.01,602.65,15.32,0000 0000 0000 0000 000000
2017-01-02 09:39:40,0.63,7.96,1.00,18.02,22.32,25.86,14.75,49.22,1010.74,2042.38,1571.74,1656.28,1886.07,599.95,602.59,15.37,0000 0000 0000 0000 000000
2017-01-02 09:44:42,0.53,7.99,1.00,18.00,22.32,25.75,14.82,49.02,1010.72,2042.51,1567.96,1653.39,1882.82,599.82,602.61,15.42,0000 0000 0000 0000 000000
2017-01-02 09:49:43,0.53,8.01,1.00,18.00,22.31,25.84,14.79,48.95,1010.76,2042.68,1564.40,1650.64,1879.63,600.04,602.84,15.47,0000 0000 0000 0000 000000
2017-01-02 09:54:44,0.52,8.04,1.00,18.00,22.30,25.82,14.79,48.98,1010.76,2042.58,1560.73,1647.94,1876.53,599.97,602.87,15.52,0000 0000 0000 0000 000000
2017-01-02 09:59:45,0.52,8.07,1.00,18.00,22.29,25.69,14.72,49.08,1010.76,2042.77,1557.28,1645.23,1873.40,599.92,602.74,15.57,0000 0000 0000 0000 000000
2017-01-02 10:04:47,0.51,8.09,1.00,17.99,22.29,25.64,14.72,49.05,1010.76,2042.80,1553.75,1642.51,1870.36,599.97,602.77,15.62,0000 0000 0000 0000 000000
2017-01-02 10:09:48,0.55,8.12,1.00,17.98,22.28,25.80,14.77,49.20,1010.77,2042.81,1549.93,1639.72,1867.22,599.99,602.85,15.67,0000 0000 0000 0000 000000
2017-01-02 10:14:49,0.58,8.15,1.00,17.97,22.27,25.73,14.77,49.13,1010.76,2042.87,1546.06,1636.82,1863.89,599.97,602.81,15.72,0000 0000 0000 0000 000000
2017-01-02 10:19:51,0.61,8.18,1.00,17.96,22.27,25.72,14.72,49.01,1010.76,2042.89,1541.81,1633.62,1860.26,599.89,602.76,15.77,0000 0000 0000 0000 000000
2017-01-02 10:24:52,0.68,8.21,1.00,17.96,22.27,25.73,14.80,49.22,1010.76,2042.94,1537.28,1630.18,1856.46,599.81,602.78,15.82,0000 0000 0000 0000 000000
2017-01-02 10:29:53,0.64,8.25,1.00,17.95,22.25,25.80,14.74,49.20,1010.76,2042.97,1532.84,1626.72,1852.68,599.87,602.75,15.87,0000 0000 0000 0000 000000
2017-01-02 10:34:54,0.60,8.28,1.00,17.93,22.24,25.70,14.77,49.22,1010.76,2042.97,1528.59,1623.53,1849.10,600.29,603.29,15.92,0000 0000 0000 0000 000000
2017-01-02 10:39:55,0.59,8.31,1.00,17.94,22.23,25.74,14.77,49.08,1010.76,2042.97,1524.61,1620.47,1845.65,600.19,603.06,15.97,0000 0000 0000 0000 000000
2017-01-02 10:44:57,0.55,8.34,1.00,17.93,22.22,25.73,14.73,49.27,1010.76,2042.98,1520.77,1617.59,1842.41,599.72,602.64,16.02,0000 0000 0000 0000 000000
2017-01-02 10:49:58,0.49,8.37,1.00,17.90,22.22,25.75,14.74,49.26,1010.76,2042.96,1517.45,1615.03,1839.47,599.94,602.86,16.07,0000 0000 0000 0000 000000
2017-01-02 10:54:59,0.53,8.39,1.00,17.89,22.21,25.61,14.76,49.21,1010.76,2042.98,1514.04,1612.39,1836.45,599.82,602.84,16.12,0000 0000 0000 0000 000000
2017-01-02 11:00:00,0.56,8.42,1.00,17.89,22.20,25.68,14.76,49.07,1010.75,2042.98,1510.34,1609.56,1833.20,600.04,603.10,16.17,0000 0000 0000 0000 000000
2017-01-02 11:05:01,0.57,8.45,1.00,17.90,22.19,25.75,14.76,49.18,1010.76,2042.98,1506.46,1606.65,1830.01,599.66,602.72,16.23,0000 0000 0000 0000 000000
2017-01-02 11:10:03,0.52,8.47,1.00,17.88,22.19,25.69,14.76,49.26,1010.74,2042.99,1502.98,1604.07,1827.01,600.14,603.05,16.28,0000 0000 0000 0000 000000
2017-01-02 11:15:04,0.45,8.50,1.00,17.87,22.18,25.62,14.80,49.22,1010.71,2042.99,1499.89,1601.64,1824.30,600.36,603.52,16.33,0000 0000 0000 0000 000000
2017-01-02 11:20:05,0.44,8.52,1.00,17.87,22.17,25.57,14.78,49.31,1010.74,2042.99,1496.97,1599.39,1821.61,599.82,602.88,16.38,0000 0000 0000 0000 000000
2017-01-02 11:25:07,0.43,8.54,1.00,17.85,22.17,25.72,14.76,49.38,1010.61,2042.99,1494.22,1597.32,1819.13,600.13,603.08,16.43,0000 0000 0000 0000 000000
2017-01-02 11:30:08,0.45,8.56,0.37,17.84,22.17,25.69,14.75,49.31,1010.73,2042.99,1491.38,1595.14,1816.53,600.20,603.34,16.48,0000 0000 0000 0000 000000
2017-01-02 11:35:09,0.46,8.59,0.00,17.83,22.16,25.62,14.75,49.32,1010.70,2042.99,1488.33,1592.79,1813.90,599.79,602.95,16.53,0000 0000 0000 0000 000000
2017-01-02 11:40:10,0.45,8.61,0.00,17.84,22.15,25.76,14.74,49.34,1010.64,2042.99,1485.36,1590.50,1811.38,599.83,602.78,16.58,0000 0000 0000 0000 000000
2017-01-02 11:45:12,0.45,8.63,0.00,17.82,22.14,25.68,14.82,49.44,1010.70,2042.99,1482.51,1588.30,1808.84,599.94,603.11,16.63,0000 0000 0000 0000 000000
2017-01-02 11:50:13,0.44,8.66,0.00,17.82,22.14,25.67,14.76,49.52,1010.60,2042.99,1479.68,1586.08,1806.28,599.86,603.10,16.68,0000 0000 0000 0000 000000
2017-01-02 11:55:14,0.44,8.68,0.00,17.81,22.14,25.66,14.74,49.53,1010.68,2042.99,1476.87,1583.86,1803.68,599.82,602.82,16.73,0000 0000 0000 0000 000000
2017-01-02 12:00:15,0.44,8.70,0.00,17.83,22.13,25.69,14.80,49.48,1010.66,2042.99,1474.10,1581.64,1801.22,600.02,602.97,16.78,0000 0000 0000 0000 000000
2017-01-02 12:05:16,0.41,8.72,0.00,17.83,22.12,25.61,14.80,49.54,1010.63,2043.01,1471.47,1579.49,1798.74,600.09,603.14,16.83,0000 0000 0000 0000 000000
2017-01-02 12:10:17,0.44,8.74,0.00,17.80,22.12,25.66,14.75,49.38,1010.43,2043.01,1468.81,1577.31,1796.21,599.92,602.95,16.88,0000 0000 0000 0000 000000
2017-01-02 12:15:19,0.45,8.77,0.00,17.80,22.12,25.62,14.80,49.48,1010.32,2043.00,1466.00,1575.10,1793.67,600.18,603.11,16.93,0000 0000 0000 0000 000000
2017-01-02 12:20:20,0.45,8.79,0.00,17.79,22.12,25.66,14.78,49.47,1010.27,2043.03,1463.22,1572.90,1791.25,600.04,603.04,16.98,0000 0000 0000 0000 000000
2017-01-02 12:25:21,0.42,8.81,0.00,17.80,22.11,25.64,14.76,49.52,1010.28,2043.04,1460.53,1570.73,1788.75,599.85,602.72,17.03,0000 0000 0000 0000 000000
2017-01-02 12:30:23,0.43,8.83,0.00,17.80,22.10,25.56,14.73,49.45,1010.32,2043.02,1457.86,1568.58,1786.24,599.98,602.83,17.08,0000 0000 0000 0000 000000
2017-01-02 12:35:24,0.44,8.85,0.00,17.79,22.09,25.62,14.77,49.33,1010.39,2043.02,1455.12,1566.46,1783.85,599.94,603.02,17.13,0000 0000 0000 0000 000000
2017-01-02 12:40:25,0.42,8.88,0.00,17.79,22.09,25.57,14.80,49.48,1010.33,2043.02,1452.36,1564.33,1781.47,600.15,603.20,17.18,0000 0000 0000 0000 000000
2017-01-02 12:45:27,0.46,8.90,0.00,17.78,22.08,25.60,14.81,49.55,1010.38,2043.04,1449.60,1562.23,1779.09,600.04,603.05,17.23,0000 0000 0000 0000 000000
2017-01-02 12:50:28,0.45,8.92,0.00,17.80,22.07,25.56,14.74,49.33,1010.34,2043.10,1446.90,1560.09,1776.70,600.08,603.07,17.28,0000 0000 0000 0000 000000
2017-01-02 12:55:29,0.47,8.94,0.00,17.80,22.07,25.62,14.78,49.52,1010.29,2043.15,1444.07,1557.92,1774.18,600.00,602.93,17.33,0000 0000 0000 0000 000000